When you browse on this site, cookies collect data to enhance your experience and personalize the content and advertising you see.
Visit our Privacy Policy to learn more. By continuing to use the site, you agree to this use of cookies and data.
  • En España
  • Lista de países
  • Para 7 días
  • Temperatura del agua
  • El tiempo en el mapa
  • Informadores
  • user-avatar
    Iniciar sesión

    Tiempo cada hora Spasskoe-Krivcovo

    Hoy, 17 Febrero, Lunes

    Tiempo Temperatura Precipitaciones Viento Presión Humedad
    00:00 -2°C° 0 mm 8 mps 748 mmHg 91%
    01:00 -2°C° 0 mm 8 mps 748 mmHg 89%
    02:00 -3°C° 0 mm 9 mps 747 mmHg 88%
    03:00 -4°C° 0 mm 9 mps 747 mmHg 86%
    04:00 -4°C° 0 mm 9 mps 746 mmHg 84%
    05:00 -4°C° 0 mm 9 mps 746 mmHg 82%
    06:00 -4°C° 0 mm 9 mps 745 mmHg 82%
    07:00 -4°C° 0 mm 9 mps 745 mmHg 81%
    08:00 -4°C° 0 mm 10 mps 745 mmHg 80%
    09:00 -4°C° 0 mm 10 mps 745 mmHg 79%
    10:00 -3°C° 0 mm 10 mps 744 mmHg 79%
    11:00 -3°C° 0 mm 10 mps 743 mmHg 78%
    12:00 -3°C° 0 mm 10 mps 743 mmHg 78%
    13:00 -3°C° 0 mm 10 mps 743 mmHg 79%
    14:00 -3°C° 0 mm 10 mps 743 mmHg 80%
    15:00 -3°C° 0 mm 10 mps 743 mmHg 79%
    16:00 -3°C° 0 mm 10 mps 743 mmHg 78%
    17:00 -3°C° 0 mm 9 mps 743 mmHg 77%
    18:00 -3°C° 0 mm 9 mps 743 mmHg 78%
    19:00 -1°C° 0 mm 9 mps 743 mmHg 79%
    20:00 -1°C° 0 mm 9 mps 743 mmHg 79%
    21:00 -1°C° 0 mm 8 mps 743 mmHg 81%
    22:00 -1°C° 0 mm 8 mps 743 mmHg 82%
    23:00 -1°C° 0 mm 7 mps 743 mmHg 84%

    Mañana, 18 Febrero, Martes

    Tiempo Temperatura Precipitaciones Viento Presión Humedad
    00:00 -1°C° 0.2 mm 7 mps 743 mmHg 87%
    01:00 -2°C° 0.2 mm 6 mps 744 mmHg 91%
    02:00 -2°C° 0.2 mm 6 mps 744 mmHg 95%
    03:00 -2°C° 0.5 mm 6 mps 743 mmHg 96%
    04:00 -1°C° 0.5 mm 5 mps 743 mmHg 97%
    05:00 -1°C° 0.5 mm 5 mps 742 mmHg 99%
    06:00 -1°C° 1.2 mm 5 mps 743 mmHg 98%
    07:00 -1°C° 1.2 mm 5 mps 743 mmHg 98%
    08:00 -1°C° 1.2 mm 5 mps 743 mmHg 98%
    09:00 -1°C° 0.5 mm 5 mps 742 mmHg 98%
    10:00 -1°C° 0.5 mm 5 mps 742 mmHg 98%
    11:00 -1°C° 0.5 mm 5 mps 741 mmHg 98%
    12:00 -1°C° 0.1 mm 5 mps 741 mmHg 97%
    13:00 -1°C° 0.1 mm 5 mps 741 mmHg 97%
    14:00 -1°C° 0.1 mm 5 mps 740 mmHg 97%
    15:00 -1°C° 0.1 mm 5 mps 740 mmHg 96%
    16:00 -1°C° 0.1 mm 5 mps 739 mmHg 96%
    17:00 -1°C° 0.1 mm 5 mps 739 mmHg 95%
    18:00 -1°C° 0.2 mm 5 mps 739 mmHg 96%
    19:00 -1°C° 0.2 mm 5 mps 739 mmHg 97%
    20:00 -1°C° 0.2 mm 5 mps 739 mmHg 98%
    21:00 -1°C° 0.2 mm 5 mps 739 mmHg 98%
    22:00 -1°C° 0.2 mm 5 mps 738 mmHg 99%
    23:00 -1°C° 0.2 mm 4 mps 738 mmHg 99%

    Pasado mañana, 19 Febrero, Miércoles

    Tiempo Temperatura Precipitaciones Viento Presión Humedad
    00:00 -1°C° 0 mm 4 mps 739 mmHg 98%
    01:00 -1°C° 0 mm 5 mps 739 mmHg 97%
    02:00 -1°C° 0 mm 5 mps 739 mmHg 96%
    03:00 -1°C° 0 mm 5 mps 739 mmHg 95%
    04:00 -2°C° 0 mm 4 mps 739 mmHg 94%
    05:00 -2°C° 0 mm 4 mps 739 mmHg 94%
    06:00 -2°C° 0 mm 4 mps 740 mmHg 94%
    07:00 -2°C° 0 mm 4 mps 740 mmHg 94%
    08:00 -2°C° 0 mm 4 mps 740 mmHg 95%
    09:00 -2°C° 0 mm 4 mps 740 mmHg 96%
    10:00 -2°C° 0 mm 4 mps 740 mmHg 98%
    11:00 -1°C° 0 mm 4 mps 740 mmHg 99%
    12:00 -1°C° 0 mm 4 mps 741 mmHg 99%
    13:00 -1°C° 0 mm 4 mps 741 mmHg 98%
    14:00 -1°C° 0 mm 4 mps 741 mmHg 97%
    15:00 -1°C° 0 mm 4 mps 741 mmHg 94%
    16:00 -1°C° 0 mm 4 mps 741 mmHg 92%
    17:00 -1°C° 0 mm 4 mps 741 mmHg 89%
    18:00 -1°C° 0 mm 3 mps 742 mmHg 89%
    19:00 -2°C° 0 mm 3 mps 742 mmHg 90%
    20:00 -2°C° 0 mm 3 mps 743 mmHg 90%
    21:00 -2°C° 0 mm 3 mps 742 mmHg 90%
    22:00 -2°C° 0 mm 3 mps 742 mmHg 89%
    23:00 -2°C° 0 mm 2 mps 742 mmHg 88%

    20 Febrero, Jueves

    Tiempo Temperatura Precipitaciones Viento Presión Humedad
    00:00 -2°C° 0 mm 2 mps 743 mmHg 88%
    01:00 -2°C° 0 mm 2 mps 743 mmHg 88%
    02:00 -2°C° 0 mm 2 mps 743 mmHg 87%
    03:00 -4°C° 0 mm 3 mps 743 mmHg 88%
    04:00 -4°C° 0 mm 3 mps 743 mmHg 88%
    05:00 -4°C° 0 mm 3 mps 743 mmHg 88%
    06:00 -4°C° 0 mm 3 mps 743 mmHg 88%
    07:00 -4°C° 0 mm 3 mps 743 mmHg 89%
    08:00 -4°C° 0 mm 3 mps 743 mmHg 89%
    09:00 -2°C° 0 mm 3 mps 744 mmHg 90%
    10:00 -1°C° 0 mm 3 mps 744 mmHg 91%
    11:00 -1°C° 0 mm 3 mps 744 mmHg 92%
    12:00 -1°C° 0 mm 3 mps 744 mmHg 93%
    13:00 -1°C° 0 mm 3 mps 744 mmHg 95%
    14:00 0°C° 0 mm 3 mps 744 mmHg 96%
    15:00 -1°C° 0 mm 3 mps 744 mmHg 96%
    16:00 -1°C° 0 mm 3 mps 744 mmHg 96%
    17:00 -2°C° 0 mm 3 mps 744 mmHg 96%
    18:00 -2°C° 0 mm 3 mps 744 mmHg 96%
    19:00 -2°C° 0 mm 3 mps 744 mmHg 96%
    20:00 -2°C° 0 mm 3 mps 745 mmHg 95%
    21:00 -2°C° 0 mm 3 mps 745 mmHg 95%
    22:00 -2°C° 0 mm 3 mps 745 mmHg 96%
    23:00 -2°C° 0 mm 3 mps 745 mmHg 96%

    21 Febrero, Viernes

    Tiempo Temperatura Precipitaciones Viento Presión Humedad
    00:00 -3°C° 0 mm 2 mps 745 mmHg 96%
    01:00 -3°C° 0 mm 2 mps 745 mmHg 97%
    02:00 -3°C° 0 mm 2 mps 745 mmHg 97%
    03:00 -3°C° 0 mm 2 mps 745 mmHg 97%
    04:00 -2°C° 0 mm 2 mps 745 mmHg 97%
    05:00 -2°C° 0 mm 2 mps 745 mmHg 97%
    06:00 -2°C° 0.1 mm 2 mps 746 mmHg 98%
    07:00 0°C° 0.1 mm 1 mps 746 mmHg 98%
    08:00 0°C° 0.1 mm 1 mps 746 mmHg 98%
    15:00 +1°C° 0 mm 1 mps 746 mmHg 99%
    16:00 +1°C° 0 mm 1 mps 746 mmHg 99%
    17:00 +1°C° 0 mm 1 mps 746 mmHg 98%
    18:00 +1°C° 0 mm 1 mps 746 mmHg 97%
    19:00 -1°C° 0 mm 2 mps 746 mmHg 97%
    20:00 -2°C° 0 mm 2 mps 746 mmHg 96%
    21:00 -2°C° 0 mm 2 mps 746 mmHg 96%
    22:00 -2°C° 0 mm 2 mps 746 mmHg 95%
    23:00 -2°C° 0 mm 2 mps 746 mmHg 95%

    22 Febrero, Sábado

    Tiempo Temperatura Precipitaciones Viento Presión Humedad
    00:00 -2°C° 0 mm 2 mps 746 mmHg 96%
    01:00 -2°C° 0 mm 2 mps 746 mmHg 96%
    02:00 -2°C° 0 mm 2 mps 746 mmHg 97%
    03:00 -2°C° 0 mm 2 mps 745 mmHg 97%
    04:00 -2°C° 0 mm 2 mps 745 mmHg 96%
    05:00 -4°C° 0 mm 3 mps 745 mmHg 96%
    06:00 -4°C° 0 mm 3 mps 745 mmHg 96%
    07:00 -4°C° 0 mm 3 mps 744 mmHg 96%
    08:00 -4°C° 0 mm 4 mps 744 mmHg 97%
    09:00 -3°C° 0 mm 4 mps 744 mmHg 96%
    10:00 -3°C° 0 mm 4 mps 744 mmHg 96%
    11:00 -2°C° 0 mm 5 mps 743 mmHg 95%
    12:00 -2°C° 0 mm 5 mps 743 mmHg 94%
    13:00 -3°C° 0 mm 6 mps 742 mmHg 93%
    14:00 -3°C° 0 mm 6 mps 742 mmHg 92%
    15:00 -3°C° 0.1 mm 6 mps 741 mmHg 93%
    16:00 -3°C° 0.1 mm 6 mps 740 mmHg 94%
    17:00 -3°C° 0.1 mm 6 mps 740 mmHg 95%
    18:00 -3°C° 0.2 mm 6 mps 739 mmHg 96%
    19:00 -3°C° 0.2 mm 6 mps 739 mmHg 96%
    20:00 -3°C° 0.2 mm 6 mps 738 mmHg 96%
    21:00 -3°C° 0.3 mm 6 mps 737 mmHg 96%
    22:00 -3°C° 0.3 mm 6 mps 736 mmHg 95%
    23:00 -3°C° 0.3 mm 6 mps 735 mmHg 94%
    Mostrar más